Tracking 18665 objects as of 24-June-2017
HD Live streaming from Space Station
objects crossing your sky now

ANNA 1B

Track ANNA 1B now!
10-day predictions
ANNA 1B is classified as:


NORAD ID: 446
Int'l Code: 1962-060A
Perigee: 1,081.5 km
Apogee: 1,186.8 km
Inclination: 50.1 °
Period: 107.8 minutes
Semi major axis: 7505 km
RCS: 0.8414 m2 (medium)
Launch date: October 31, 1962
Source: United States (US)
Launch site: AIR FORCE EASTERN TEST RANGE (AFETR)
Your satellite tracking list
Your tracking list is empty





NASA's NSSDC Master Catalog

Two Line Element Set (TLE):
1   446U 62060A   17174.92659212 -.00000126 +00000-0 +81852-6 0  9994
2   446 050.1429 330.5534 0070163 359.9539 138.0737 13.35258807665446
Source of the keplerian elements: AFSPC